Location: ?????? ??????
(44.3742°N, 135.2221°E)
Time: 04:01:39
(UTC+00:00)

CZ-2D R/B - Visible Passes

Search period start: 18 May 2026 00:00
Search period end: 28 May 2026 00:00
Orbit: 789 x 841 km, 98.9° (Epoch: 17 May)

Date Brightness Start Highest point End Pass type
(mag) Time Alt. Az. Time Alt. Az. Time Alt. Az.
18 May 4.8 16:14:32 10° ENE 16:15:16 10° E 16:15:59 10° E visible
18 May 2.3 17:50:35 10° NNE 17:56:03 78° ESE 18:01:04 12° S visible
19 May 2.9 17:28:30 10° NNE 17:33:48 50° E 17:38:38 12° S visible
20 May 3.6 17:06:35 10° NNE 17:11:28 32° E 17:16:12 11° SSE visible
20 May 2.9 18:46:27 10° N 18:51:26 37° WNW 18:56:24 10° SW visible
21 May 4.2 16:44:58 10° NE 16:49:03 21° E 16:53:08 10° SE visible
21 May 2.4 18:24:01 10° N 18:29:21 57° WNW 18:34:41 10° SSW visible
22 May 4.6 16:24:00 10° ENE 16:26:34 13° E 16:29:09 10° ESE visible
22 May 2.2 18:01:43 10° NNE 18:07:12 86° WNW 18:12:35 10° SSW visible
23 May 2.6 17:39:33 10° NNE 17:44:59 62° ESE 17:50:09 11° S visible
24 May 3.3 17:17:33 10° NNE 17:22:41 40° E 17:27:42 10° SSE visible
25 May 3.9 16:55:47 10° NE 17:00:19 26° E 17:04:50 10° SSE visible
25 May 2.7 18:35:15 10° N 18:40:28 46° WNW 18:45:39 10° SW visible
26 May 4.4 16:34:25 10° NE 16:37:53 17° E 16:41:18 10° SE visible
26 May 2.2 18:12:53 10° N 18:18:20 71° WNW 18:23:46 10° SSW visible
27 May 4.8 16:14:51 10° E 16:15:21 10° E 16:15:51 10° E visible
27 May 2.3 17:50:40 10° NNE 17:56:10 77° ESE 18:01:37 10° S visible
